Jefferson City, MO

6:51 AM CDT on August 19, 2017 (GMT -0500)
Jefferson City Memorial

Weather History for KJEF - December, 2012

Change the Weather History Date:

Thursday, December 6, 2012

  Actual Average Record
Temperature  
Mean Temperature 46 °F -  
Max Temperature 55 °F 46 °F 73 °F (1951)
Min Temperature 36 °F 26 °F 3 °F (1950)
Degree Days  
Heating Degree Days 20    
Moisture  
Dew Point 37 °F    
Average Humidity 73    
Maximum Humidity 86    
Minimum Humidity 57    
Precipitation  
Precipitation 0.00 in - - ()
Sea Level Pressure  
Sea Level Pressure 29.96 in    
Wind  
Wind Speed 4 mph (SE)    
Max Wind Speed 6 mph    
Max Gust Speed -    
Visibility 10 miles    
Events      
Averages and records for this station are not official NWS values.
T = Trace of Precipitation, MM = Missing Value Source: NWS Daily Summary

Daily Weather History Graph

Daily Weather History Graph

Search for Another Location

Airport or City:

Trip Planner

Search our weather history database for the weather conditions in past years. The results will help you decide how hot, cold, wet, or windy it might be!

Date:

Astronomy

Dec. 06, 2012 Rise Set
Actual Time 7:12 AM CST 4:47 PM CST
Civil Twilight 6:42 AM CST 5:16 PM CST
Nautical Twilight 6:09 AM CST 5:49 PM CST
Astronomical Twilight 5:37 AM CST 6:22 PM CST
Moon No Moon Rise 12:09 PM CST (12/6)
Length of Visible Light 10h 33m
Length of Day
9h 34m
Waning Gibbous, 49% of the Moon is Illuminated
Dec 6
Waning Gibbous
Dec 13
New
Dec 19
First Quarter
Dec 28
Full
Jan 4
Last Quarter

Hourly Weather History & Observations

Time (CST) Temp. Windchill Dew Point Humidity Pressure Visibility Wind Dir Wind Speed Gust Speed Precip Events Conditions
12:53 AM 41.0 °F 37.1 °F 33.1 °F 73% 30.08 in 10.0 mi SE 5.8 mph - N/A   Clear
1:53 AM 39.9 °F 36.7 °F 33.1 °F 77% 30.07 in 10.0 mi SE 4.6 mph - N/A   Clear
2:53 AM 36.0 °F - 30.9 °F 82% 30.07 in 10.0 mi Calm Calm - N/A   Clear
3:53 AM 37.0 °F 32.4 °F 32.0 °F 82% 30.04 in 10.0 mi ESE 5.8 mph - N/A   Clear
4:53 AM 37.0 °F 33.3 °F 32.0 °F 82% 30.02 in 10.0 mi ESE 4.6 mph - N/A   Clear
5:53 AM 37.0 °F 32.4 °F 32.0 °F 82% 30.02 in 10.0 mi ESE 5.8 mph - N/A   Clear
6:53 AM 37.0 °F 32.4 °F 32.0 °F 82% 30.02 in 10.0 mi ESE 5.8 mph - N/A   Clear
7:53 AM 36.0 °F 31.1 °F 32.0 °F 86% 30.02 in 10.0 mi SE 5.8 mph - N/A   Clear
8:53 AM 42.1 °F 39.2 °F 35.1 °F 76% 30.02 in 10.0 mi ESE 4.6 mph - N/A   Clear
9:53 AM 44.1 °F 41.5 °F 36.0 °F 73% 30.01 in 10.0 mi ESE 4.6 mph - N/A   Clear
10:53 AM 48.0 °F - 37.0 °F 66% 29.98 in 10.0 mi Variable 3.5 mph - N/A   Clear
11:53 AM 53.1 °F - 37.9 °F 57% 29.95 in 10.0 mi SSE 3.5 mph - N/A   Clear
12:53 PM 55.0 °F - 39.9 °F 57% 29.92 in 10.0 mi Calm Calm - N/A   Clear
1:53 PM 55.9 °F - 41.0 °F 57% 29.90 in 10.0 mi Calm Calm - N/A   Clear
2:53 PM 55.0 °F - 43.0 °F 64% 29.89 in 10.0 mi SE 3.5 mph - N/A   Mostly Cloudy
3:53 PM 55.0 °F - 41.0 °F 59% 29.87 in 10.0 mi Calm Calm - N/A   Clear
4:53 PM 53.1 °F - 42.1 °F 66% 29.87 in 10.0 mi Calm Calm - N/A   Clear
5:53 PM 53.1 °F - 41.0 °F 64% 29.89 in 10.0 mi Calm Calm - N/A   Clear
6:53 PM 48.9 °F - 39.9 °F 71% 29.90 in 10.0 mi Calm Calm - N/A   Clear
7:53 PM 50.0 °F - 39.9 °F 68% 29.89 in 10.0 mi ESE 5.8 mph - N/A   Clear
8:53 PM 46.0 °F - 39.9 °F 79% 29.90 in 10.0 mi Calm Calm - N/A   Clear
9:53 PM 45.0 °F - 39.0 °F 80% 29.89 in 10.0 mi Calm Calm - N/A   Clear
10:53 PM 46.9 °F - 39.9 °F 77% 29.89 in 10.0 mi Calm Calm - N/A   Overcast
11:53 PM 46.0 °F 43.9 °F 41.0 °F 83% 29.88 in 10.0 mi SE 4.6 mph - N/A   Overcast